OBJECT H, 59780

Orbit data source: Space-Track

You're viewing an Uncataloged Satellite

Recently launched and/or uncataloged satellites may have evolving metadata. Metadata may include but not limited to: Owner, Maufacturer, Bus, Motor, and Mission.

OBJECT H, 59780 is a satellite owned by Byuro 1440 (CIS) in SSO that was launched on Thu, 16 May 2024 UTC via a SOYUZ-2-1B launch vehicle from the Plesetsk Missile And Space Complex (PKMTR). Unknown objects in Earth's orbit typically refer to objects detected orbiting the Earth but have not yet been identified or cataloged. These objects could be anything from previously untracked satellites, spent rocket stages, debris from satellite collisions, or even natural meteoroids temporarily captured by Earth's gravity.

Loading next visibility...
Identifier
59780, 2024-092H
Orbit
SSO
Country
Flag of CISCIS
Related business
Flag of RUBureau 1440 (RU)
Manufacturer
Byuro 1440
Mission
Operational Commercial Communications
Bus & Motor
RASSVET-2, Unknown motor
Mass
~200 kg wet, ~200 kg dry
Launch date (UTC)
2024-05-16 (1 year ago)
Launch vehicle
SOYUZ-2-1B
Launch site
Plesetsk Missile And Space Complex (PKMTR)
Object type
Unknown
Shape & HBR
Box + 2 Pan, 2.5 m
Radar Cross Section
1.622 m², Large (>1 m²)

Expand to show TLE details & history
Last TLE update: 7 hours ago

TLE from 7 hours ago
0 OBJECT H
1 59780U 24092H   25290.94054631  .00000391  00000-0  16319-3 0  9992
2 59780  98.6492  45.5999 0012037 197.4428 162.6344 14.31690118 74234
Epoch: 2025-10-17T22:34Z
TLE epoch observation values (Epoch: 2025-10-17T22:34:23.201Z)
Latitude
0.00007°
Longitude
40.32451°
Altitude
797.252 km
Speed
7.451 km/s
True Right ascension
03h 02m 23s
True Declination
0° 00' 00"
Sunlit
Object was in full shadow at epoch
Visualization orbit readout
Latitude
Unknown
Longitude
Unknown
Altitude
Unknown
Speed
Unknown
Apparent Right ascension
Unknown
Apparent Declination
Unknown
Sunlit
N/A
Visualization observer readout
Local Sidereal Time
00:11:32
Azimuth
Unknown
Elevation
Unknown
Doppler factor
Unknown
Orbital elements
Apogee altitude
791.847 km
Perigee altitude
774.607 km
Semi-major axis
7,161.364 km
Eccentricity
0.0012
Inclination
98.6492°
RAAN
45.5999°
Arg. of periapsis
197.4428°
True anomaly
162.67551°
Mean anomaly
162.6344°
Eccentric anomaly
162.65496°
Mean motion
3.58137 °/min
Orbital period
100.52 mins
BSTAR
0.00016319
Loading maneuver chart data...
Computing Atmospheric mass density...
Loading historical data...
Loading historical data...
Loading historical data...
Loading historical data...
Loading historical data...
Loading historical data...
Loading historical data...

Documentation

Showing up to 5 results
|